Home > Weather > Nalbari > Past weeks

Flag for India Weather for the Past 2 Weeks in Nalbari, Assam, India

Now
91 °F

Scattered clouds.


Feels Like: 100 °F
Forecast: 70 / 86 °F
Wind: 12 mph from Southwest

Location: Chittagong Patenga

Current Time: May 3, 2016 at 2:59:13 PM

Latest Report: May 3, 2016 at 1:30 PM


Visibility: 3 mi

Pressure: 29.74 "Hg

Humidity: 56%

Dew Point: 73 °F

Location of NalbariLocation

Historic Weather in Nalbari — Graph

°F

Nalbari Temperature Yesterday

Maximum temperature yesterday: 93 °F (at 2:30 PM)
Minimum temperature yesterday: 73 °F (at 5:30 AM)
Average temperature yesterday: 83 °F

High & Low Weather Summary for the Past Weeks

 TemperatureHumidityPressure
High95 °F (Apr 23, 12:30 PM)100% (May 1, 6:30 AM)29.83 "Hg (May 1, 6:30 AM)
Low68 °F (May 1, 6:30 AM)56% (May 2, 11:30 AM)29.53 "Hg (Apr 23, 5:30 PM)
Average87 °F73%29.71 "Hg
* Reported Apr 18 1:30 PM — May 3 1:30 PM, Nalbari, Weather by CustomWeather, © 2016

Note: Actual official high and low records may vary slightly from our data, if they occured in-between our weather recording intervals... More about our weather records

Advertising

Nalbari Weather History for the Previous 24 Hours

Scroll right to see more
 ConditionsComfort  
Time TempWeatherWind HumidityBarometerVisibility
1:30 PM
Tue, May 3
91 °FScattered clouds.12 mph56%29.74 "Hg3 mi
12:30 PM90 °FScattered clouds.6 mph59%29.77 "Hg3 mi
11:30 AM90 °FBroken clouds.7 mph59%29.80 "Hg3 mi
10:30 AM86 °FScattered clouds.7 mph59%29.80 "Hg3 mi
9:30 AM84 °FBroken clouds.3 mph62%29.80 "Hg3 mi
8:30 AM82 °FHaze.9 mph62%29.80 "Hg3 mi
7:30 AM77 °FScattered clouds.8 mph74%29.80 "Hg3 mi
6:30 AM73 °FBroken clouds.7 mph83%29.77 "Hg2 mi
5:30 AM72 °FScattered clouds.5 mph83%29.74 "Hg2 mi
9:30 PM
Mon, May 2
73 °FMostly cloudy.12 mph83%29.74 "Hg3 mi
8:30 PM73 °FThunderstorms. Mostly cloudy.12 mph89%29.77 "Hg3 mi
6:30 PM77 °FThunderstorms. Partly cloudy.12 mph83%29.80 "Hg3 mi
5:30 PM81 °FThunderstorms. Mostly cloudy.25 mph89%29.74 "Hg1 mi
4:30 PM88 °FBroken clouds.8 mph70%29.68 "Hg4 mi
3:30 PM91 °FPassing clouds.16 mph63%29.65 "Hg4 mi
2:30 PM93 °FScattered clouds.14 mph59%29.68 "Hg4 mi
Weather by CustomWeather, © 2016

See weather overviewHow to use our weather pages